Overview Statistics Trail Chart Weather Telemetry Raw packets
 

This is the latest recevied weather packets stored in our database for station/object IW1RCO-13. If no packets are shown the sender has not sent any weather packets the latest 10 day(s).

<< 65 66 67 68 69 70 71 >>
Time Temp. Humidity Pressure Rain* Wind** Luminosity Snow
1788106771 25.56° C 71% 1014.1 hPa - - - -
1788106468 26.11° C 70% 1014.2 hPa - - - -
1788106171 26.11° C 69% 1014.2 hPa - - - -
1788105868 26.67° C 68% 1013.8 hPa - - - -
1788105571 26.67° C 69% 1013.6 hPa - - - -
1788105267 26.67° C 68% 1013.9 hPa - - - -
1788104971 27.22° C 67% 1013.8 hPa - - - -
1788104667 27.22° C 67% 1014.1 hPa - - - -
1788104370 27.78° C 66% 1014.5 hPa - - - -
1788104067 27.22° C 67% 1014 hPa - - - -
1788103770 27.78° C 67% 1014.9 hPa - - - -
1788103467 27.22° C 67% 1014.2 hPa - - - -
1788103170 27.78° C 66% 1014.2 hPa - - - -
1788102866 28.33° C 64% 1014.7 hPa - - - -
1788100769 28.89° C 65% 1013.8 hPa - - - -
1788100465 28.33° C 66% 1013.5 hPa - - - -
1788100169 27.78° C 67% 1013.7 hPa - - - -
1788099872 27.78° C 67% 1013.9 hPa - - - -
1788099569 27.78° C 64% 1014 hPa - - - -
1788099272 28.89° C 65% 1014.4 hPa - - - -
1788098968 28.33° C 65% 1013.9 hPa - - - -
1788098672 28.89° C 64% 1014.4 hPa - - - -
1788098368 28.33° C 65% 1013.7 hPa - - - -
1788098071 28.33° C 64% 1014.1 hPa - - - -
1788097471 28.33° C 63% 1014.1 hPa - - - -

* Rain since midnight (hover to see other rain measurements)
** Current wind speed in m/s (hover to see current wind gust speed)